Regional Weather Roundup
Issued by NWS Sioux Falls, SD

Home | Current Version | Previous Version | Text Only | Print | Product List | Glossary Off
Versions: 1 2 3 4 5 6 7 8 9 10 11 12 13 14 15 16 17 18 19 20 21 22 23 24 25 26 27 28 29 30 31 32 33 34 35 36 37 38 39 40 41 42 43 44 45 46 47 48 49 50

000
ASUS43 KFSD 282002
RWRFSD

WEATHER ROUNDUP FOR SE SOUTH DAKOTA/SW MINNESOTA/NW IOWA
NATIONAL WEATHER SERVICE SIOUX FALLS SD
300 PM CDT TUE MAR 28 2017

NOTE: "FAIR" INDICATES FEW OR NO CLOUDS BELOW 12,000 FEET WITH NO
SIGNIFICANT WEATHER AND OR OBSTRUCTIONS TO VISIBILITY.


SDZ038>040-050-052>070-282100-
SOUTHEAST SOUTH DAKOTA

CITY           SKY/WX    TMP DP  RH WIND       PRES   REMARKS
BROOKINGS      MOSUNNY   57  37  47 E10       30.10F
CHAMBERLAIN    MOSUNNY   61  35  38 E9        30.07F
HURON          CLOUDY    58  38  47 E9        30.10F
MADISON        FAIR      57  39  51 E12       30.11F
MITCHELL       SUNNY     60  36  40 E10       30.09F
SIOUX FALLS    CLOUDY    62  38  40 E10       30.08F
WINNER         LGT RAIN  51  47  86 E5        30.07S
YANKTON        CLOUDY    55  37  50 E7        30.08S
$$

MNZ071-072-080-081-089-090-097-098-282100-
SOUTHWEST MINNESOTA

CITY           SKY/WX    TMP DP  RH WIND       PRES   REMARKS
FAIRMONT       SUNNY     57  38  48 E6G17     30.13F
JACKSON          N/A     59  32  36 E12G17    30.12F
LUVERNE        MOSUNNY   59  34  38 NE8G16    30.10F
MARSHALL       PTSUNNY   59  35  40 E8        30.13F
MONTEVIDEO     CLOUDY    63  34  34 SE6       30.14F
PIPESTONE      CLOUDY    57  30  35 SE7       30.10F
REDWOOD FALLS  PTSUNNY   61  34  36 SE3       30.13F
TRACY          PTSUNNY   59  38  45 NE7       30.13F
WINDOM         SUNNY     61  34  36 NE10G16   30.12F
WORTHINGTON    SUNNY     57  37  47 E10       30.11F
$$

IAZ001>003-012>014-020>022-031-032-NEZ013-014-SDZ071-282100-
NORTHWEST IOWA

CITY           SKY/WX    TMP DP  RH WIND       PRES   REMARKS
CHEROKEE       SUNNY     59  35  41 E13G18    30.09F
DENISON        CLOUDY    52  43  71 E10       30.10F
ESTHERVILLE    SUNNY     57  39  51 NE13      30.11F
LE MARS        MOSUNNY   61  36  39 NE15      30.08F
ORANGE CITY    SUNNY     59  37  44 E10G16    30.08F
SHELDON        MOSUNNY   59  37  44 E13       30.07F
SIOUX CITY     MOSUNNY   61  39  44 E17       30.06F
SPENCER        SUNNY     60  37  42 E18G24    30.10F
STORM LAKE     SUNNY     57  37  47 NE15G21   30.09F
$$

ABBREVIATIONS USED IN REMARKS
   TC - TEMPERATURE IN CELSIUS
  WCI - WIND CHILL INDEX
   HX - HEAT INDEX
  VSB - VISIBILITY





USA.gov is the U.S. government's official web portal to all federal, state and local government web resources and services.